Find Starlink 6210

NORAD ID: 56485 Int'l Des: 2023-064 Owner: SPXS Country: US Constellation: starlink operational
LEOCIRCULAR

現在のビュー

3D地球を読み込み中...

Starlink 6210について

説明を読み込み中...

次回通過

Passes for default location (London). Set your location on the main map for personalized predictions.

高度履歴

Loading altitude history...

軌道要素

1 56485U 23064AP 26150.80379164 -.00000196 00000-0 -85992-5 0 9991
2 56485 69.9995 277.2329 0002643 269.3916 90.6940 14.98329264168045
Epoch: May 30, 2026 • Age: 12 hours

現在のステータス

高度 576.0 km
速度 7.58 km/s
衛星直下点 28.71°N, 88.18°E
打ち上げ日 May 10, 2023
運用期間 3 years
タイプ internet

技術仕様

分類 Payload
質量 305.00 kg
乾燥質量 290.00 kg
総質量 305.00 kg
長さ 0.20 m
直径 2.80 m
スパン 9.00 m
形状 Box + pan
製造者 SPXS
バスタイプ Starlink
フェーズステータス In Orbit
所有者/国 SPXS/US

Most Searched